Regional Weather Roundup
Issued by NWS

Home | Current Version | Previous Version | Text Only | Print | Product List | Glossary Off
Versions: 1 2 3 4 5 6 7 8 9 10 11 12 13 14 15 16 17 18 19 20 21 22 23 24 25 26 27 28 29 30 31 32 33 34 35 36 37 38 39 40 41 42 43 44 45 46 47 48 49 50

000
ASUS43 KLOT 060208
RWRIL

ILLINOIS REGIONAL WEATHER ROUNDUP
NATIONAL WEATHER SERVICE CHICAGO/ROMEOVILLE IL
900 PM CDT THU MAY 05 2016

NOTE: "FAIR" INDICATES FEW OR NO CLOUDS BELOW 12,000 FEET WITH NO
SIGNIFICANT WEATHER AND/OR OBSTRUCTIONS TO VISIBILITY.

* THESE STATIONS ARE NOT UNDER NWS QUALITY CONTROL. THEY ALSO MAY NOT
  REPORT WEATHER SUCH AS PRECIPITATION OR FOG.

ILZ001-002-007-009-015-016-024-060300-
NORTHWEST ILLINOIS

CITY           SKY/WX    TMP DP  RH WIND       PRES   REMARKS
MOLINE         CLEAR     54  41  61 CALM      29.98S
STERLING*      CLEAR     54  43  66 W3        29.99R
SAVANNA*       CLEAR     55  45  67 CALM      29.98R
$$

ILZ003-004-008-010-011-017-018-060300-
NORTH CENTRAL ILLINOIS

CITY           SKY/WX    TMP DP  RH WIND       PRES   REMARKS
ROCKFORD       PTCLDY    57  39  51 CALM      29.99S
FREEPORT*      CLEAR     56  39  51 SW3       29.99S
ROCHELLE*      CLEAR     55  41  57 CALM      29.99R
DE KALB*       CLEAR     57  40  52 CALM      29.99R
$$

ILZ005-006-012>014-019>023-060300-
NORTHEAST ILLINOIS

CITY           SKY/WX    TMP DP  RH WIND       PRES   REMARKS
CHICAGO-OHARE  PTCLDY    52  37  56 E3        29.98R
CHICAGO-MIDWAY PTCLDY    52  37  56 CALM      29.98S
AURORA         CLEAR     55  42  61 W3        29.98R
LANSING*       CLEAR     49  39  69 CALM      29.98S
JOLIET*        CLEAR     55  44  67 CALM      29.98S
WAUKEGAN       CLEAR     43  37  79 CALM      29.97S
DUPAGE AIRPORT CLEAR     53  40  61 SE5       29.97R
KANKAKEE*      CLEAR     51  42  70 NE3       29.99R
WHEELING       CLEAR     50  36  58 CALM      29.99S
MORRIS*        CLEAR     58  40  50 CALM      29.97R
ROMEOVILLE*    CLEAR     52  41  66 SE6       29.99R
NORTHERLY ISL    N/A     46  38  73 CALM        N/A
NORTHERLY ISL    N/A     46  38  73 CALM        N/A
$$

LMZ740>746-060300-
SOUTHERN LAKE MICHIGAN

STATION/POSITION SKY/WX   TEMP    WIND        PRES    VSBY  WAVE
                          AIR SEA DIR/SP/G                  HT/PER
                          (F)     (DEG/KT/KT) (MB)    (MI)  (FT/S)
SOUTHERN BUOY              43 40  300/  4/  4 1014.8R         2/ 5
WILMETTE HARBOR            44 44  250/  2/  2   N/A           2/ 6
HARRISON CRIB              46        CALM       N/A
BURNHAM HARBOR             46     340/  1/  1   N/A
CALUMET HARBOR             46                 1014.6F
BURNS HARBOR               48      60/  3/  5 1015.6
MICHIGAN CITY              46      30/  3/  3   N/A
ST. JOSEPH                 45 47                N/A           3/ 5
$$

ILZ025>027-034>036-040-047-049-050-058-095>099-060300-
WEST-CENTRAL ILLINOIS

CITY           SKY/WX    TMP DP  RH WIND       PRES   REMARKS
QUINCY         CLEAR     60  38  43 CALM      30.01S
GALESBURG*     CLEAR     53  39  58 CALM      30.00R
MACOMB*        CLEAR     56  38  51 CALM      30.03R
JACKSONVILLE*  CLEAR     57  38  49 W5        30.01R
PITTSFIELD*    CLEAR     57  42  57 CALM      30.03R
$$

ILZ028>032-037-038-041>044-048-051>054-059>061-060300-
CENTRAL ILLINOIS

CITY           SKY/WX    TMP DP  RH WIND       PRES   REMARKS
PONTIAC        CLEAR     58  46  63 NW5       29.99R
BLOOMINGTON    CLEAR     58  42  55 NW6       30.00R
DECATUR        CLEAR     58  42  55 NW7       29.99R
PEORIA         CLEAR     56  40  55 CALM      30.00R
LACON*         PTCLDY    53  42  67 CALM      29.99R
LINCOLN*       CLEAR     55  46  72 CALM      29.99S
SPRINGFIELD    CLEAR     58  43  57 NW6       30.00R
TAYLORVILLE    CLEAR     55  46  69 CALM      30.00R
$$

ILZ033-039-045-046-055>057-062-063-060300-
EAST-CENTRAL ILLINOIS

CITY           SKY/WX    TMP DP  RH WIND       PRES   REMARKS
CHAMPAIGN      CLEAR     56  42  59 N5        29.98R
RANTOUL*       CLEAR     58  45  60 CALM      29.98R
MATTOON        CLEAR     53  43  68 NW5       29.97R
PARIS*         PTCLDY    55  43  64 CALM      29.98R
$$

ILZ079-100>102-060300-
SOUTHWEST ILLINOIS

CITY           SKY/WX    TMP DP  RH WIND       PRES   REMARKS
ALTON          PTCLDY    57  43  58 CALM      30.01S
BELLEVILLE     CLEAR     55  50  83 W3        30.00R
CAHOKIA*       PTCLDY    60  45  57 CALM      30.01R
SPARTA*        CLEAR     56  47  71 W3        30.02R
$$

ILZ064>066-069>071-074>076-080>082-084>086-088>090-092>094-060300-
SOUTH-CENTRAL ILLINOIS

CITY           SKY/WX    TMP DP  RH WIND       PRES   REMARKS
CARBONDALE     CLEAR     52  45  77 W3        30.00S
CAIRO*         CLEAR     51  46  83 CALM      30.01S
EFFINGHAM*     PTCLDY    55  50  83 CALM      30.00R
MARION         CLEAR     55  48  76 CALM      30.01R
MT. VERNON     PTCLDY    50  43  76 CALM      30.00R
CENTRALIA*     PTCLDY    56  49  77 NW5       29.99R
SALEM*         CLEAR     56  47  71 NW3       29.99S
METROPOLIS*    CLEAR     51  49  93 CALM      30.00S
$$

ILZ067-068-072-073-078-083-087-091-060300-
SOUTHEAST ILLINOIS

CITY           SKY/WX    TMP DP  RH WIND       PRES   REMARKS
LAWRENCEVILLE  CLEAR     56  48  74 CALM      29.96R
FLORA*         CLEAR     57  46  65 NW3       29.98R
FAIRFIELD*     PTCLDY    56  47  72 CALM      29.97R
HARRISBURG*    PTCLDY    54  48  81 W3        29.99S
ROBINSON*      CLEAR     52  45  76 NW6       29.97R
CARMI*         CLEAR     53  49  85 NW6       29.97R
$$

ABBREVIATIONS USED IN REMARKS
   TC - TEMPERATURE IN CELSIUS
  WCI - WIND CHILL INDEX
   HX - HEAT INDEX
  VSB - VISIBILITY
$$




USA.gov is the U.S. government's official web portal to all federal, state and local government web resources and services.